VA3XLC Weather Reports


Display with metric or nautical units.
time (UTC)temp
F
wind
direction
speed
MPH
gust
MPH
rain 1hr
in
rain 24hr
in
rain mn
in
humidity
%
barometer
mb
20260905093848 63 75 2.0 4.0 0.00 0.00 0.00 92 982.4
20260905092826 63 74 2.0 3.0 0.00 0.00 0.00 91 982.3
20260905092326 63 82 2.0 4.0 0.00 0.00 0.00 91 982.3
20260905091826 63 49 1.0 2.0 0.00 0.00 0.00 91 982.3
20260905091326 63 130 1.0 2.0 0.00 0.00 0.00 91 982.2
20260905090826 63 82 2.0 3.0 0.00 0.00 0.00 91 982.3
20260905090325 64 89 1.0 4.0 0.00 0.00 0.00 91 982.4
20260905085825 64 75 2.0 4.0 0.00 0.00 0.00 91 982.5
20260905085325 64 76 3.0 4.0 0.00 0.00 0.00 91 982.7
20260905084825 64 69 0.0 1.0 0.00 0.00 0.00 91 982.8
20260905084324 64 101 2.0 3.0 0.00 0.00 0.00 91 982.8
20260905083303 64 76 1.0 3.0 0.00 0.00 0.00 92 982.6
20260905082803 64 67 1.0 2.0 0.00 0.00 0.00 92 982.5
20260905082306 64 110 2.0 3.0 0.00 0.00 0.00 93 982.5
20260905081802 64 48 1.0 3.0 0.00 0.00 0.00 93 982.4
20260905081302 64 116 2.0 3.0 0.00 0.00 0.00 93 982.4
20260905080240 64 143 2.0 4.0 0.00 0.00 0.00 93 982.1
20260905075739 64 112 2.0 3.0 0.00 0.00 0.00 94 982.1
20260905075239 64 115 2.0 3.0 0.00 0.00 0.00 94 982.1
20260905074738 64 106 1.0 2.0 0.00 0.00 0.00 94 982.1
20260905073716 64 96 1.0 2.0 0.00 0.00 0.00 94 982.0
20260905073216 63 111 3.0 4.0 0.00 0.00 0.00 94 982.0
20260905072716 63 110 2.0 3.0 0.00 0.00 0.00 95 982.0
20260905072216 63 55 2.0 3.0 0.00 0.00 0.00 95 981.9
20260905071715 63 69 3.0 5.0 0.00 0.00 0.00 96 981.9
20260905071215 63 0 0.0 0.0 0.00 0.00 0.00 96 982.0
20260905070714 63 56 1.0 2.0 0.00 0.00 0.00 96 982.1
20260905070214 63 0 0.0 0.0 0.00 0.00 0.00 96 982.1
20260905065714 63 0 0.0 0.0 0.00 0.00 0.00 96 982.1
20260905065213 63 0 0.0 0.0 0.00 0.00 0.00 96 982.2
20260905064713 63 0 0.0 0.0 0.00 0.00 0.00 96 982.2
20260905064213 63 58 1.0 1.0 0.00 0.00 0.00 96 982.1
20260905063713 63 100 1.0 2.0 0.00 0.00 0.00 96 982.1
20260905063212 64 102 1.0 2.0 0.00 0.00 0.00 96 982.0
20260905062150 64 56 1.0 2.0 0.00 0.00 0.00 95 982.2
20260905061650 64 0 0.0 0.0 0.00 0.00 0.00 96 982.2
20260905061150 64 135 1.0 2.0 0.00 0.00 0.00 95 982.1
20260905060650 64 103 2.0 3.0 0.00 0.00 0.00 96 982.2
20260905055107 64 132 1.0 2.0 0.00 0.00 0.00 96 982.3
20260905054045 65 55 1.0 2.0 0.00 0.00 0.00 96 982.4
20260905053545 65 0 0.0 0.0 0.00 0.00 0.00 96 982.4
20260905053045 65 0 0.0 0.0 0.00 0.00 0.00 95 982.4
20260905052023 66 132 1.0 2.0 0.00 0.00 0.00 95 982.4
20260905051522 66 82 2.0 3.0 0.00 0.00 0.00 94 982.4
20260905051022 66 69 1.0 2.0 0.00 0.00 0.00 94 982.5
20260905050522 67 87 1.0 3.0 0.00 0.00 0.00 93 982.5
20260905050022 67 105 2.0 2.0 0.00 0.00 0.00 93 982.5
20260905045521 67 91 2.0 3.0 0.00 0.00 0.00 92 982.5
20260905044502 67 91 2.0 3.0 0.00 0.00 0.00 91 982.5
20260905043438 68 108 2.0 4.0 0.00 0.00 0.00 90 982.5
20260905042938 68 81 1.0 2.0 0.00 0.00 0.00 91 982.5
20260905042437 68 0 0.0 0.0 0.00 0.00 0.00 91 982.6
20260905041937 68 88 2.0 3.0 0.00 0.00 0.00 90 982.6
20260905041437 68 39 1.0 2.0 0.00 0.00 0.00 91 982.6
20260905040937 68 0 0.0 0.0 0.00 0.00 0.00 91 982.6
20260905040437 68 0 0.0 0.0 0.00 0.00 0.00 91 982.6
20260905035936 68 0 0.0 0.0 0.00 0.00 0.00 91 982.6
20260905035436 68 36 1.0 2.0 0.00 0.00 0.00 91 982.6
20260905034936 68 124 1.0 1.0 0.00 0.00 0.00 91 982.7
20260905034435 68 38 1.0 4.0 0.00 0.00 0.00 91 982.7
20260905033935 68 0 0.0 0.0 0.00 0.00 0.00 92 982.7
20260905033434 68 64 2.0 3.0 0.00 0.00 0.00 92 982.8
20260905032934 68 359 1.0 2.0 0.00 0.00 0.00 93 982.8
20260905032433 68 0 0.0 0.0 0.00 0.00 0.00 93 982.8
20260905031933 68 0 0.0 0.0 0.00 0.00 0.00 93 982.8
20260905031433 68 0 0.0 0.0 0.00 0.00 0.00 94 982.7
20260905030412 68 0 0.0 0.0 0.00 0.00 0.00 94 982.7
20260905025912 68 0 0.0 0.0 0.00 0.00 0.00 94 982.8
20260905025411 68 0 0.0 0.0 0.00 0.00 0.00 95 982.8
20260905024910 68 0 0.0 0.0 0.00 0.00 0.00 95 982.8
20260905023849 68 0 0.0 0.0 0.00 0.00 0.00 94 982.8
20260905023349 68 0 0.0 0.0 0.00 0.00 0.00 94 982.8
20260905022327 68 0 0.0 0.0 0.00 0.00 0.00 94 982.7
20260905021826 68 0 0.0 0.0 0.00 0.00 0.00 94 982.6
20260905021325 68 0 0.0 0.0 0.00 0.00 0.00 94 982.7
20260905020825 68 0 0.0 0.0 0.00 0.00 0.00 93 982.7
20260905020325 68 0 0.0 0.0 0.00 0.00 0.00 93 982.7
20260905015824 68 0 0.0 0.0 0.00 0.00 0.00 92 982.7
20260905015323 68 0 0.0 0.0 0.00 0.00 0.00 90 982.7
20260905014302 68 0 0.0 0.0 0.00 0.00 0.00 90 982.7
20260905013802 68 0 0.0 0.0 0.00 0.00 0.00 91 982.6
20260905013302 68 0 0.0 0.0 0.00 0.00 0.00 91 982.6
20260905012802 68 0 0.0 0.0 0.00 0.00 0.00 90 982.6
20260905012305 68 0 0.0 0.0 0.00 0.00 0.00 88 982.5
20260905011801 69 0 0.0 0.0 0.00 0.00 0.00 90 982.5
20260905011300 69 0 0.0 0.0 0.00 0.00 0.00 88 982.5
20260905010800 69 0 0.0 0.0 0.00 0.00 0.00 89 982.5
20260905010300 69 0 0.0 0.0 0.00 0.00 0.00 88 982.5
20260905005759 69 0 0.0 0.0 0.00 0.00 0.00 87 982.4
20260905004737 70 0 0.0 0.0 0.00 0.00 0.00 85 982.4
20260905003716 70 100 1.0 2.0 0.00 0.00 0.00 86 982.3
20260905002654 70 0 0.0 0.0 0.00 0.00 0.00 86 982.3
20260905001633 70 0 0.0 0.0 0.00 0.00 0.00 87 982.3
20260905001133 70 0 0.0 0.0 0.00 0.00 0.00 87 982.3
20260905000633 70 0 0.0 0.0 0.00 0.00 0.00 85 982.3
20260905000132 70 0 0.0 0.0 0.00 0.00 0.00 84 982.4
20260904235111 70 124 1.0 2.0 0.00 0.00 0.00 84 982.4
20260904234611 70 54 1.0 2.0 0.00 0.00 0.00 84 982.4
20260904234111 70 94 1.0 2.0 0.00 0.00 0.00 84 982.4
20260904233610 71 104 1.0 2.0 0.00 0.00 0.00 85 982.4
20260904233110 71 110 1.0 2.0 0.00 0.00 0.00 84 982.3
20260904232610 71 103 1.0 2.0 0.00 0.00 0.00 84 982.2
20260904232110 71 71 2.0 3.0 0.00 0.00 0.00 84 982.2
20260904231610 71 56 1.0 3.0 0.00 0.00 0.00 84 982.2
20260904230548 71 117 1.0 2.0 0.00 0.00 0.00 83 982.2
20260904230048 71 141 1.0 2.0 0.00 0.00 0.00 84 982.2
20260904225548 71 64 1.0 2.0 0.00 0.00 0.00 85 982.1
20260904225047 71 114 1.0 2.0 0.00 0.00 0.00 85 982.1
20260904223505 71 122 1.0 2.0 0.00 0.00 0.00 86 981.9
20260904223005 71 96 3.0 4.0 0.00 0.00 0.00 86 981.8
20260904222504 71 65 2.0 3.0 0.00 0.00 0.00 86 981.9
20260904222004 71 63 2.0 4.0 0.00 0.00 0.00 87 981.8
20260904221503 71 73 3.0 5.0 0.00 0.00 0.00 86 981.7
20260904221002 71 51 2.0 4.0 0.00 0.00 0.00 86 981.7
20260904220502 71 77 4.0 6.0 0.00 0.00 0.00 86 981.6
20260904215441 71 75 3.0 6.0 0.00 0.00 0.00 86 981.5
20260904214940 71 79 2.0 3.0 0.00 0.00 0.00 87 981.5
20260904214439 71 100 2.0 5.0 0.00 0.00 0.00 86 981.3
20260904213418 71 94 4.0 5.0 0.00 0.00 0.00 87 981.3
20260904212918 71 91 3.0 4.0 0.00 0.00 0.00 87 981.4
20260904212417 72 80 3.0 6.0 0.00 0.00 0.00 89 981.4
20260904211917 72 99 3.0 5.0 0.00 0.00 0.00 90 981.3
20260904211417 72 66 3.0 6.0 0.00 0.00 0.00 91 981.4
20260904210917 72 80 3.0 5.0 0.00 0.00 0.00 90 981.4
20260904205855 72 91 3.0 5.0 0.00 0.00 0.00 90 981.3
20260904205355 72 108 4.0 6.0 0.00 0.00 0.00 89 981.3
20260904204855 72 77 3.0 4.0 0.00 0.00 0.00 89 981.3
20260904204355 72 76 2.0 5.0 0.00 0.00 0.00 89 981.3
20260904203855 72 45 2.0 3.0 0.00 0.00 0.00 90 981.2
20260904203354 72 57 3.0 5.0 0.00 0.00 0.00 90 981.3
20260904202854 72 75 2.0 5.0 0.00 0.00 0.00 90 981.3
20260904202354 72 81 3.0 5.0 0.00 0.00 0.00 89 981.4
20260904201854 72 70 3.0 4.0 0.00 0.00 0.00 90 981.4
20260904201353 72 65 3.0 5.0 0.00 0.00 0.00 90 981.5
20260904200853 72 78 3.0 5.0 0.00 0.00 0.00 89 981.5
20260904195832 72 94 2.0 5.0 0.00 0.00 0.00 90 981.5
20260904195332 72 120 3.0 5.0 0.00 0.00 0.00 91 981.6
20260904194831 73 145 4.0 6.0 0.00 0.00 0.00 90 981.7
20260904194331 72 118 3.0 6.0 0.00 0.00 0.00 91 981.7
20260904193831 72 120 1.0 3.0 0.00 0.00 0.00 91 981.8
20260904193330 72 123 2.0 5.0 0.00 0.00 0.00 91 981.9
20260904192309 73 88 3.0 4.0 0.00 0.00 0.00 90 982.0
20260904191809 73 124 2.0 4.0 0.00 0.00 0.00 90 982.0
20260904191309 73 112 3.0 3.0 0.00 0.00 0.00 90 982.0
20260904190808 73 127 3.0 5.0 0.00 0.00 0.00 90 982.0
20260904190308 73 167 2.0 3.0 0.00 0.00 0.00 90 982.1
20260904185808 74 142 2.0 3.0 0.00 0.00 0.00 88 982.1
20260904185308 74 143 1.0 3.0 0.00 0.00 0.00 87 982.2
20260904184808 74 142 3.0 4.0 0.00 0.00 0.00 86 982.3
20260904184308 74 54 1.0 2.0 0.00 0.00 0.00 86 982.3
20260904182725 73 41 2.0 2.0 0.00 0.00 0.00 88 982.5
20260904182224 74 105 2.0 4.0 0.00 0.00 0.00 88 982.4
20260904181723 74 130 1.0 2.0 0.00 0.00 0.00 87 982.5
20260904180702 74 144 2.0 3.0 0.00 0.00 0.00 86 982.5
20260904180201 74 113 3.0 4.0 0.00 0.00 0.00 86 982.4
20260904175701 74 45 3.0 4.0 0.00 0.00 0.00 85 982.5
20260904175201 73 293 1.0 2.0 0.00 0.00 0.00 87 982.5
20260904174701 73 127 2.0 4.0 0.00 0.00 0.00 88 982.7
20260904174200 73 164 1.0 2.0 0.00 0.00 0.00 86 982.8
20260904173700 73 153 2.0 4.0 0.00 0.00 0.00 87 982.9
20260904173200 72 64 1.0 2.0 0.00 0.00 0.00 88 983.1
20260904172659 71 332 2.0 3.0 0.00 0.00 0.00 89 983.3
20260904172158 71 243 2.0 3.0 0.00 0.00 0.00 88 983.3
20260904171657 71 67 1.0 2.0 0.00 0.00 0.00 90 983.5
20260904171157 70 349 2.0 4.0 0.00 0.00 0.00 92 983.5
20260904170136 70 350 2.0 3.0 0.00 0.00 0.00 93 983.6
20260904165635 70 199 1.0 2.0 0.00 0.00 0.00 94 983.8
20260904165135 69 315 3.0 3.0 0.00 0.00 0.00 94 983.9
20260904164634 69 252 3.0 4.0 0.00 0.00 0.00 94 984.1
20260904164134 69 308 3.0 4.0 0.00 0.00 0.00 94 984.2
20260904163113 69 271 3.0 4.0 0.00 0.00 0.00 94 984.4
20260904162611 69 0 0.0 0.0 0.00 0.00 0.00 95 984.5
20260904162111 69 246 3.0 5.0 0.00 0.00 0.00 95 984.6
20260904161611 69 257 2.0 3.0 0.00 0.00 0.00 95 984.7
20260904161111 69 255 2.0 4.0 0.00 0.00 0.00 95 984.8
20260904160610 69 278 3.0 4.0 0.00 0.00 0.00 95 984.8
20260904160110 69 262 2.0 4.0 0.00 0.00 0.00 95 984.8
20260904154528 68 250 3.0 4.0 0.00 0.00 0.00 96 984.5
20260904154027 68 266 3.0 3.0 0.00 0.00 0.00 96 984.7
20260904153527 68 286 2.0 3.0 0.00 0.00 0.00 96 984.7
20260904153027 68 268 2.0 4.0 0.00 0.00 0.00 96 984.7
20260904152527 68 300 2.0 3.0 0.00 0.00 0.00 95 984.7
20260904152026 68 250 2.0 3.0 0.00 0.00 0.00 95 984.7
20260904151004 68 244 2.0 3.0 0.00 0.00 0.00 94 984.6
20260904150504 68 275 1.0 1.0 0.00 0.00 0.00 94 984.5
20260904150004 68 0 0.0 0.0 0.00 0.00 0.00 93 984.4
20260904145504 68 0 0.0 0.0 0.00 0.00 0.00 94 984.3
20260904145004 68 154 1.0 3.0 0.00 0.00 0.00 93 984.4
20260904143420 68 279 1.0 2.0 0.00 0.00 0.00 93 984.5
20260904142920 68 316 1.0 2.0 0.00 0.00 0.00 94 984.4
20260904142420 68 251 2.0 3.0 0.00 0.00 0.00 94 984.3
20260904141920 68 0 0.0 0.0 0.00 0.00 0.00 94 984.2
20260904141419 68 0 0.0 0.0 0.00 0.00 0.00 94 984.1
20260904140919 68 253 1.0 2.0 0.00 0.00 0.00 94 984.1
20260904140419 68 153 1.0 2.0 0.00 0.00 0.00 95 984.0
20260904135918 68 153 1.0 1.0 0.00 0.00 0.00 95 983.9
20260904135418 67 0 0.0 0.0 0.00 0.00 0.00 95 983.7
20260904134917 67 171 1.0 2.0 0.00 0.00 0.00 96 983.8
20260904134417 67 246 1.0 2.0 0.00 0.00 0.00 95 983.7
20260904133916 67 165 1.0 2.0 0.00 0.00 0.00 95 983.6
20260904133416 67 0 0.0 0.0 0.00 0.00 0.00 96 983.6
20260904132916 66 167 2.0 3.0 0.00 0.00 0.00 96 983.6
20260904131854 66 157 2.0 2.0 0.00 0.00 0.00 95 983.7
20260904131354 66 140 1.0 2.0 0.00 0.00 0.00 96 983.7
20260904130854 66 177 1.0 2.0 0.00 0.00 0.00 97 983.8
20260904130354 66 179 2.0 3.0 0.00 0.00 0.00 97 983.8
20260904125853 65 154 2.0 3.0 0.00 0.00 0.00 97 983.8
20260904125353 65 123 1.0 1.0 0.00 0.00 0.00 97 983.9
20260904124332 66 0 0.0 0.0 0.00 0.00 0.00 98 984.0
20260904123832 66 252 1.0 2.0 0.00 0.00 0.00 98 984.0
20260904123331 66 0 0.0 0.0 0.00 0.00 0.00 98 984.0
20260904122830 66 0 0.0 0.0 0.00 0.00 0.00 98 984.0
20260904122330 66 134 1.0 1.0 0.00 0.00 0.00 98 983.9
20260904121830 65 0 0.0 0.0 0.00 0.00 0.00 98 983.9
20260904121330 65 162 1.0 2.0 0.00 0.00 0.00 98 983.8
20260904120829 65 151 1.0 2.0 0.00 0.00 0.00 98 983.9
20260904120329 65 0 0.0 0.0 0.00 0.00 0.00 98 983.8
20260904115828 65 0 0.0 0.0 0.00 0.00 0.00 98 983.6
20260904115328 65 0 0.0 0.0 0.00 0.00 0.00 98 983.6
20260904114828 65 0 0.0 0.0 0.00 0.00 0.00 98 983.6
20260904114328 65 21 0.0 1.0 0.00 0.00 0.00 98 983.5
20260904113827 65 0 0.0 0.0 0.00 0.00 0.00 98 983.4
20260904112806 64 0 0.0 0.0 0.00 0.00 0.00 98 983.5
20260904112306 64 0 0.0 0.0 0.00 0.00 0.00 98 983.4
20260904111244 64 0 0.0 0.0 0.00 0.00 0.00 98 983.3
20260904110744 64 0 0.0 0.0 0.00 0.00 0.00 98 983.3
20260904110244 64 0 0.0 0.0 0.00 0.00 0.00 98 983.2
20260904105744 64 0 0.0 0.0 0.00 0.00 0.00 98 982.9
20260904105243 64 0 0.0 0.0 0.00 0.00 0.00 98 982.8
20260904104743 65 0 0.0 0.0 0.00 0.00 0.00 98 982.7
20260904104243 65 0 0.0 0.0 0.00 0.00 0.00 98 982.8
20260904103222 65 44 1.0 2.0 0.00 0.00 0.00 98 982.8
20260904102721 65 0 0.0 0.0 0.00 0.00 0.00 98 982.8
20260904102220 65 150 2.0 2.0 0.00 0.00 0.00 98 982.7
20260904101720 65 0 0.0 0.0 0.00 0.00 0.00 98 982.8
20260904101220 65 0 0.0 0.0 0.00 0.00 0.00 98 982.8
20260904100720 65 0 0.0 0.0 0.00 0.00 0.00 98 982.9
20260904100220 65 0 0.0 0.0 0.00 0.00 0.00 98 982.9
20260904095720 65 0 0.0 0.0 0.00 0.00 0.00 98 982.8